Miscellaneous Local Product
Issued by NWS North Platte, NE

Home | Current Version | Previous Version | Graphics & Text | Print | Product List | Glossary On
Versions: 1 2 3 4 5 6 7 8 9 10 11 12 13 14 15 16 17 18 19 20 21 22 23 24 25 26 27 28 29 30 31 32 33 34 35 36 37 38 39 40 41 42 43 44 45 46 47 48 49 50
654
AXUS43 KLBF 041910
MISLBF


WESTERN AND NORTH CENTRAL NEBRASKA HOURLY WEATHER ROUNDUP
NATIONAL WEATHER SERVICE NORTH PLATTE NE
100 PM CST SUN DEC 04 2016

NOTE: "FAIR" INDICATES FEW OR NO CLOUDS BELOW 12,000 FEET WITH NO
SIGNIFICANT WEATHER AND/OR OBSTRUCTIONS TO VISIBILITY.

NOTE: STATIONS NOT REPORTING VARIABLES SUCH AS SKY/WEATHER OR
PRESSURE ARE PROVIDED BY RAWS AND APRS NETWORKS AND ARE NOT UNDER
NATIONAL WEATHER SERVICE QUALITY CONTROL.

...OBSERVATIONS IN AND NEAR THE EASTERN PANHANDLE OF NEBRASKA...

CITY           SKY/WX    TMP DP  RH WIND       PRES   REMARKS
PINE RIDGE     SUNNY     39  19  44 SW3       29.84F
CHADRON        SUNNY     46  15  28 SW15      29.84F
ALLIANCE       SUNNY     45  16  31 W18       29.87F
SIDNEY         SUNNY     47   9  21 SW22      29.91F
CRESCENT LAKE    N/A     45  16  30 W14G23      N/A
$$

...OBSERVATIONS IN NORTHERN NEBRASKA AND FAR SOUTHERN SOUTH DAKOTA...

CITY           SKY/WX    TMP DP  RH WIND       PRES   REMARKS
WINNER         FAIR      47  25  42 W15       29.84F
VALENTINE      SUNNY     46  19  34 W16       29.86F
THEDFORD       SUNNY     49  19  30 W14       29.89F
AINSWORTH      SUNNY     47  21  36 NW14      29.87F
O`NEILL        SUNNY     49  25  39 NW9       29.88F
ORD            SUNNY     48  24  39 SW9       29.89F
BROKEN BOW     SUNNY     49  25  39 W14       29.89F
VALENTINE NWR    N/A     47  17  30 W14         N/A
BUTTE            N/A     44  27  51 W12G20      N/A
HALSEY           N/A     50  18  28 W7G14       N/A
CHAMBERS         N/A     48  28  45 W3          N/A
EWING            N/A     47  32  55 W6          N/A
$$

...OBSERVATIONS IN SOUTHWEST NEBRASKA AND FAR NORTHEAST COLORADO...

CITY           SKY/WX    TMP DP  RH WIND       PRES   REMARKS
HOLYOKE        FAIR      52  12  20 SW14      29.94F
IMPERIAL       SUNNY     47  11  23 W14G21    29.95F
OGALLALA       SUNNY     49  18  29 W12G17    29.92F
NORTH PLATTE   SUNNY     49  17  28 W14       29.93F
MCCOOK         SUNNY     49  19  30 NW12G18   29.96F
LEXINGTON      SUNNY     48  22  36 W9        29.93F
STAPLETON        N/A     48  21  34 CALM        N/A
GOTHENBURG       N/A     46  18  32 W8          N/A
CALLAWAY         N/A     48  24  38 W12         N/A
$$

...OBSERVATIONS IN CENTRAL LINCOLN COUNTY AREA...

CITY           SKY/WX    TMP DP  RH WIND       PRES   REMARKS
N.P. AIRPORT   SUNNY     49  17  28 W14       29.93F
N.P. DOWNTOWN    N/A     46  21  36 W6          N/A
N.P. SOUTHEAST   N/A     46  20  35 W7G15       N/A
N.P. HILLCREST   N/A     46  19  33 W14         N/A
$$

...SOME OBSERVATIONS FROM AROUND THE REGION...

CITY           SKY/WX    TMP DP  RH WIND       PRES   REMARKS
LARAMIE        CLOUDY    34  14  43 SW25G32   29.90F WCI  21
CHEYENNE       SUNNY     44  13  28 W29G36    29.86F
DENVER         MOSUNNY   51   8  17 W20G25    29.90F
AKRON          SUNNY     46   7  20 SW12G20   29.92F
SCOTTSBLUFF    SUNNY     48  13  24 W12G21    29.87F
RAPID CITY     SUNNY     47  14  26 SW9       29.78F
BISMARCK       SUNNY     32  22  66 W12       29.74F WCI  23
PIERRE         SUNNY     37  26  64 W10       29.81F WCI  30
SIOUX FALLS    SUNNY     42  33  70 W12       29.83F
OMAHA          MOSUNNY   38  32  79 SW9       29.94F WCI  31
GRAND ISLAND   SUNNY     48  31  51 W8        29.93F
KANSAS CITY    PTSUNNY   41  35  79 NW13      29.96F
WICHITA        MOSUNNY   47  38  71 W7        30.02F
OKLAHOMA CITY  PTSUNNY   52  41  66 N8        30.06F
DALLAS         CLOUDY    52  44  74 N12       30.05F
AMARILLO       SUNNY     48  28  46 NW9       30.09F
DODGE CITY     SUNNY     48  27  44 NW13      30.04F
HAYS           SUNNY     46  31  55 W9        30.00F
GOODLAND       SUNNY     47  10  22 VRB5      29.97F
$$




USA.gov is the U.S. government's official web portal to all federal, state and local government web resources and services.